This is the latest recevied weather packets stored in our database for station/object K7FRY. If no packets are shown the sender has not sent any weather packets the latest 10 day(s).
| Time | Temp. | Humidity | Pressure | Rain* | Wind** | Luminosity | Snow |
|---|---|---|---|---|---|---|---|
| 1777992593 | 14.44° C | 98% | 1013.8 hPa | 0 mm | - | 81 W/m² | - |
| 1777992291 | 14.44° C | 98% | 1014 hPa | 0 mm | - | 75 W/m² | - |
| 1777991988 | 14.44° C | 98% | 1014 hPa | 0 mm | - | 85 W/m² | - |
| 1777991686 | 14.44° C | 98% | 1013.8 hPa | 0 mm | - | 121 W/m² | - |
| 1777991383 | 14.44° C | 99% | 1013.7 hPa | 0 mm | - | 272 W/m² | - |
| 1777991080 | 14.44° C | 99% | 1013.8 hPa | 0 mm | - | 111 W/m² | - |
| 1777990777 | 13.89° C | 99% | 1014 hPa | 0 mm | - | 95 W/m² | - |
| 1777990474 | 13.89° C | 99% | 1013.8 hPa | 0 mm | - | 54 W/m² | - |
| 1777989867 | 14.44° C | 99% | 1013.9 hPa | 0 mm | - | 83 W/m² | - |
| 1777989564 | 14.44° C | 99% | 1014 hPa | 0 mm | - | 91 W/m² | - |
| 1777989261 | 13.89° C | 99% | 1013.9 hPa | 0 mm | - | 71 W/m² | - |
| 1777988957 | 13.89° C | 99% | 1013.9 hPa | 0 mm | - | 55 W/m² | - |
| 1777988654 | 13.89° C | 99% | 1013.9 hPa | 0 mm | - | 43 W/m² | - |
| 1777988350 | 13.89° C | 99% | 1013.9 hPa | 0 mm | - | 42 W/m² | - |
| 1777988048 | 13.89° C | 99% | 1013.8 hPa | 0 mm | - | 36 W/m² | - |
| 1777987743 | 13.89° C | 99% | 1013.5 hPa | 0 mm | - | 22 W/m² | - |
| 1777987440 | 13.33° C | 99% | 1013.6 hPa | 0 mm | - | 12 W/m² | - |
| 1777987137 | 13.89° C | 99% | 1013.6 hPa | 0 mm | - | 12 W/m² | - |
| 1777986834 | 13.89° C | 99% | 1013.2 hPa | 0 mm | - | 11 W/m² | - |
| 1777986532 | 13.33° C | 99% | 1013.6 hPa | 0 mm | - | 7 W/m² | - |
| 1777986230 | 13.89° C | 99% | 1013.4 hPa | 0 mm | - | 7 W/m² | - |
| 1777985927 | 13.89° C | 99% | 1013.2 hPa | 0 mm | - | 3 W/m² | - |
| 1777985625 | 13.89° C | 99% | 1013.5 hPa | 0 mm | - | 1 W/m² | - |
| 1777985321 | 13.89° C | 99% | 1013.3 hPa | 0 mm | - | 0 W/m² | - |
| 1777985018 | 13.33° C | 99% | 1013.3 hPa | 0 mm | - | 0 W/m² | - |
* Rain latest hour (hover to see other rain measurements)
** Current wind speed in m/s (hover to see current wind gust speed)